Ft Pierce, FL

11:56 AM EDT on September 25, 2017 (GMT -0400)
Saint Lucie County International

Weather History for KFPR - January, 2013

Change the Weather History Date:

Thursday, January 3, 2013

  Actual Average Record
Temperature  
Mean Temperature 68 °F -  
Max Temperature 82 °F 75 °F 86 °F (1967)
Min Temperature 55 °F 54 °F 32 °F (1979)
Cooling Degree Days 4    
Growing Degree Days 18 (Base 50)    
Moisture  
Dew Point 61 °F    
Average Humidity 88    
Maximum Humidity 100    
Minimum Humidity 52    
Precipitation  
Precipitation 0.00 in - - ()
Sea Level Pressure  
Sea Level Pressure 30.08 in    
Wind  
Wind Speed 2 mph (NW)    
Max Wind Speed 12 mph    
Max Gust Speed 17 mph    
Visibility 5 miles    
Events Fog    
Averages and records for this station are not official NWS values.
T = Trace of Precipitation, MM = Missing Value Source: NWS Daily Summary

Daily Weather History Graph

Daily Weather History Graph

Search for Another Location

Airport or City:

Trip Planner

Search our weather history database for the weather conditions in past years. The results will help you decide how hot, cold, wet, or windy it might be!

Date:

Astronomy

Jan. 03, 2013 Rise Set
Actual Time 7:12 AM EST 5:40 PM EST
Civil Twilight 6:46 AM EST 6:05 PM EST
Nautical Twilight 6:17 AM EST 6:34 PM EST
Astronomical Twilight 5:49 AM EST 7:03 PM EST
Moon 11:36 PM EST (1/3) 10:57 AM EST (1/3)
Length of Visible Light 11h 18m
Length of Day
10h 27m
Waning Gibbous, 65% of the Moon is Illuminated
Jan 3
Waning Gibbous
Jan 4
Last Quarter
Jan 11
New
Jan 18
First Quarter
Jan 26
Full

Hourly Weather History & Observations

Time (EST) Temp. Heat Index Dew Point Humidity Pressure Visibility Wind Dir Wind Speed Gust Speed Precip Events Conditions
12:53 AM 60.1 °F - 57.0 °F 90% 30.05 in 9.0 mi SW 3.5 mph - N/A   Mostly Cloudy
1:53 AM 62.1 °F - 59.0 °F 90% 30.06 in 7.0 mi Calm Calm - N/A   Clear
2:53 AM 61.0 °F - 59.0 °F 93% 30.04 in 5.0 mi Calm Calm - N/A   Clear
3:53 AM 60.1 °F - 59.0 °F 96% 30.04 in 3.0 mi Calm Calm - N/A   Clear
4:07 AM 60.8 °F - 59.0 °F 94% 30.05 in 1.8 mi Calm Calm - N/A   Clear
4:13 AM 59.0 °F - 57.2 °F 94% 30.05 in 0.5 mi West 4.6 mph - N/A Fog Fog
4:21 AM 60.8 °F - 57.2 °F 88% 30.05 in 1.0 mi Calm Calm - N/A   Mostly Cloudy
4:25 AM 60.8 °F - 59.0 °F 94% 30.05 in 3.0 mi Calm Calm - N/A   Scattered Clouds
4:43 AM 60.8 °F - 57.2 °F 88% 30.05 in 2.0 mi West 3.5 mph - N/A   Scattered Clouds
4:53 AM 60.1 °F - 57.9 °F 93% 30.04 in 2.0 mi Calm Calm - N/A   Scattered Clouds
5:03 AM 59.0 °F - 57.2 °F 94% 30.04 in 1.2 mi Calm Calm - N/A   Scattered Clouds
5:08 AM 59.0 °F - 57.2 °F 94% 30.04 in 0.5 mi West 3.5 mph - N/A Fog Fog
5:14 AM 59.0 °F - 57.2 °F 94% 30.04 in 0.2 mi Calm Calm - N/A Fog Fog
5:41 AM 57.2 °F - 57.2 °F 100% 30.06 in 0.2 mi West 3.5 mph - N/A Fog Fog
5:53 AM 57.9 °F - 57.0 °F 97% 30.06 in 0.5 mi West 3.5 mph - N/A Fog Fog
6:06 AM 59.0 °F - 57.2 °F 94% 30.06 in 0.2 mi Calm Calm - N/A Fog Fog
6:53 AM 57.9 °F - 55.9 °F 93% 30.07 in 1.0 mi Calm Calm - N/A   Clear
7:00 AM 57.2 °F - 57.2 °F 100% 30.07 in 0.2 mi Calm Calm - N/A Fog Fog
7:43 AM 55.4 °F - 55.4 °F 100% 30.09 in 0.2 mi WNW 3.5 mph - N/A Fog Fog
7:53 AM 57.0 °F - 55.9 °F 96% 30.09 in 0.2 mi Calm Calm - N/A Fog Fog
8:45 AM 62.6 °F - 62.6 °F 100% 30.10 in 0.2 mi Calm Calm - N/A Fog Fog
8:53 AM 64.0 °F - 63.0 °F 96% 30.10 in 3.0 mi Calm Calm - N/A   Clear
9:00 AM 64.4 °F - 64.4 °F 100% 30.10 in 0.2 mi Calm Calm - N/A   Mist
9:06 AM 64.4 °F - 64.4 °F 100% 30.10 in 0.5 mi Calm Calm - N/A   Mist
9:09 AM 64.4 °F - 64.4 °F 100% 30.10 in 0.8 mi Calm Calm - N/A   Clear
9:18 AM 66.2 °F - 64.4 °F 94% 30.11 in 5.0 mi Calm Calm - N/A   Clear
9:53 AM 72.0 °F - 66.0 °F 81% 30.12 in 7.0 mi Calm Calm - N/A   Clear
10:53 AM 77.0 °F - 61.0 °F 58% 30.11 in 10.0 mi SW 8.1 mph - N/A   Clear
11:53 AM 77.0 °F - 62.1 °F 60% 30.09 in 10.0 mi SW 6.9 mph - N/A   Scattered Clouds
12:53 PM 82.0 °F 83.1 °F 63.0 °F 52% 30.05 in 10.0 mi WSW 11.5 mph - N/A   Mostly Cloudy
1:53 PM 81.0 °F 81.9 °F 62.1 °F 52% 30.04 in 10.0 mi WSW 11.5 mph - N/A   Partly Cloudy
2:53 PM 79.0 °F - 61.0 °F 54% 30.04 in 10.0 mi WSW 8.1 mph 17.3 mph N/A   Partly Cloudy
3:53 PM 73.9 °F - 66.0 °F 76% 30.06 in 9.0 mi NE 6.9 mph - N/A   Mostly Cloudy
4:53 PM 71.1 °F - 66.0 °F 84% 30.07 in 10.0 mi NNE 5.8 mph - N/A   Scattered Clouds
5:53 PM 71.1 °F - 66.0 °F 84% 30.09 in 9.0 mi NNE 6.9 mph - N/A   Overcast
6:53 PM 70.0 °F - 66.0 °F 87% 30.11 in 9.0 mi NE 4.6 mph - N/A   Mostly Cloudy
7:53 PM 70.0 °F - 66.0 °F 87% 30.12 in 9.0 mi NE 4.6 mph - N/A   Mostly Cloudy
8:53 PM 71.1 °F - 66.9 °F 87% 30.13 in 9.0 mi NNE 4.6 mph - N/A   Overcast
9:53 PM 71.1 °F - 66.9 °F 87% 30.14 in 9.0 mi North 8.1 mph - N/A   Overcast
10:02 PM 69.8 °F - 66.2 °F 88% 30.15 in 9.0 mi North 6.9 mph - N/A   Overcast
10:53 PM 70.0 °F - 66.0 °F 87% 30.16 in 10.0 mi NW 4.6 mph - N/A   Overcast
11:08 PM 69.8 °F - 64.4 °F 83% 30.14 in 10.0 mi NNE 3.5 mph - N/A   Overcast
11:53 PM 66.9 °F - 64.0 °F 90% 30.14 in 9.0 mi NNW 3.5 mph - N/A   Mostly Cloudy